{"data":{"norad_id":62423,"intl_designator":"2024-249Q","name":"STARLINK-32680","alt_names":[],"object_type":"PAYLOAD","status":"ACTIVE","operator":null,"country":"US","launch_date":"2024-12-23","launch_site_code":"AFETR","launch_vehicle":null,"mission":null,"orbit_class":"UNKNOWN","rcs_meters":null,"size_class":null,"mass_kg":null,"dimensions":null,"purposes":["comms"],"wikipedia_slug":null,"has_3d_model":false,"image_url":null,"decayed_at":null,"tle_current":{"epoch":"2026-09-21T08:07:41.373120Z","epoch_age_seconds":102114,"freshness":"FRESH","line1":"1 62423U 24249Q   26264.33867330  .00008351  00000+0  31258-3 0  9999","line2":"2 62423  43.0029 289.3244 0002227 274.9813  85.0784 15.27585545 97731","mean_motion":15.27585545,"eccentricity":0.0002227,"inclination_deg":43.0029,"raan_deg":289.3244,"arg_perigee_deg":274.9813,"mean_anomaly_deg":85.0784,"bstar":0.00031258,"rev_number":9773,"period_min":94.266406533717,"perigee_km":481.50450991913,"apogee_km":484.56047481102,"semimajor_km":6861.1694923651,"source":"CELESTRAK","updated_at":"2026-09-22T09:00:49.578202Z"}}}